Orbital Elements at Epoch 2459200.5 (2020-Dec-17.0) TDB
Reference: JPL 20 (heliocentric ecliptic J2000)
Element | Value | Uncertainty (1-sigma) | Units |
e | .1678708293974005 | 4.7633e-08 | |
a | 2.374495184420768 | 1.1122e-08 | au |
q | 1.97588670841192 | 1.1498e-07 | au |
i | 7.442323233875968 | 5.2454e-06 | deg |
node | 285.8561533214092 | 3.1722e-05 | deg |
peri | 186.703556398709 | 3.4962e-05 | deg |
M | 352.3282345522554 | 1.2449e-05 | deg |
tp | 2459228.980537568048 (2021-Jan-14.48053757) | 4.6197e-05 | TDB |
period | 1336.458158729493 3.66 | 9.3899e-06 2.571e-08 | d yr |
n | .269368702378408 | 1.8926e-09 | deg/d |
Q | 2.773103660429616 | 1.2989e-08 | au |
|
| | Orbit Determination Parameters
Additional Information
|